TimeCDT,TemperatureF,Dew PointF,Humidity,Sea Level PressureIn,VisibilityMPH,Wind Direction,Wind SpeedMPH,Gust SpeedMPH,PrecipitationIn,Events,Conditions,WindDirDegrees,DateUTC
12:52 AM,75.9,73.9,94,30.21,10.0,Calm,Calm,-,N/A,,Clear,0,2013-07-18 05:52:00
1:52 AM,75.0,73.0,94,30.20,10.0,Calm,Calm,-,N/A,,Clear,0,2013-07-18 06:52:00
2:52 AM,73.9,72.0,93,30.18,9.0,Calm,Calm,-,N/A,,Clear,0,2013-07-18 07:52:00
3:52 AM,73.9,72.0,93,30.18,10.0,Calm,Calm,-,N/A,,Clear,0,2013-07-18 08:52:00
4:52 AM,73.9,72.0,93,30.17,10.0,Calm,Calm,-,N/A,,Clear,0,2013-07-18 09:52:00
5:52 AM,73.0,72.0,96,30.18,9.0,Calm,Calm,-,N/A,,Clear,0,2013-07-18 10:52:00
6:52 AM,75.0,73.9,96,30.18,8.0,Calm,Calm,-,N/A,,Clear,0,2013-07-18 11:52:00
7:52 AM,81.0,75.0,82,30.18,10.0,South,3.5,-,N/A,,Clear,190,2013-07-18 12:52:00
8:52 AM,84.9,73.0,67,30.18,10.0,SW,4.6,-,N/A,,Clear,220,2013-07-18 13:52:00
9:52 AM,87.1,72.0,61,30.17,10.0,SW,3.5,-,N/A,,Clear,230,2013-07-18 14:52:00
10:52 AM,89.1,72.0,57,30.16,10.0,SW,3.5,-,N/A,,Clear,230,2013-07-18 15:52:00
11:52 AM,91.0,73.0,55,30.15,10.0,Variable,6.9,-,N/A,,Clear,0,2013-07-18 16:52:00
12:52 PM,91.0,72.0,53,30.14,10.0,WSW,6.9,-,N/A,,Partly Cloudy,250,2013-07-18 17:52:00
1:52 PM,93.0,72.0,50,30.11,10.0,WSW,8.1,-,N/A,,Partly Cloudy,250,2013-07-18 18:52:00
2:52 PM,93.0,71.1,49,30.08,10.0,West,5.8,-,N/A,,Clear,260,2013-07-18 19:52:00
3:52 PM,93.0,72.0,50,30.06,10.0,WSW,5.8,-,N/A,,Clear,250,2013-07-18 20:52:00
4:52 PM,93.0,73.0,52,30.04,10.0,SW,4.6,-,N/A,,Clear,220,2013-07-18 21:52:00
5:52 PM,91.9,72.0,52,30.03,10.0,WSW,5.8,-,N/A,,Clear,240,2013-07-18 22:52:00
6:52 PM,90.0,73.0,57,30.01,10.0,SW,3.5,-,N/A,,Clear,220,2013-07-18 23:52:00
7:52 PM,87.1,73.0,63,30.01,10.0,SSW,3.5,-,N/A,,Clear,210,2013-07-19 00:52:00
8:52 PM,82.9,75.0,77,30.02,10.0,Calm,Calm,-,N/A,,Clear,0,2013-07-19 01:52:00
9:52 PM,81.0,75.0,82,30.02,10.0,South,4.6,-,N/A,,Clear,190,2013-07-19 02:52:00
10:52 PM,82.0,73.9,76,30.01,10.0,SSW,4.6,-,N/A,,Clear,210,2013-07-19 03:52:00
11:52 PM,79.0,73.9,84,30.01,9.0,South,6.9,-,N/A,,Clear,190,2013-07-19 04:52:00